Time,TemperatureF,DewpointF,PressureIn,WindDirection,WindDirectionDegrees,WindSpeedMPH,WindSpeedGustMPH,Humidity,HourlyPrecipIn,Conditions,Clouds,dailyrainin,SoftwareType,DateUTC
2013-07-21 00:01:00,68.0,65.0,30.00,SW,220,0.0,3.0,90,0.00,,,0.46,,2013-07-21 04:01:00,
2013-07-21 00:11:00,68.0,65.0,29.99,SW,220,0.0,3.0,90,0.00,,,0.44,,2013-07-21 04:11:00,
2013-07-21 00:22:00,68.0,65.0,29.99,SSE,153,0.0,5.0,90,0.00,,,0.44,,2013-07-21 04:22:00,
2013-07-21 00:32:00,68.0,65.0,29.99,SSE,155,0.0,2.0,90,0.00,,,0.44,,2013-07-21 04:32:00,
2013-07-21 00:43:00,68.0,65.0,29.99,SSE,156,0.0,1.0,91,0.00,,,0.44,,2013-07-21 04:43:00,
2013-07-21 00:53:00,68.0,65.0,30.00,South,182,0.0,3.0,91,0.00,,,0.44,,2013-07-21 04:53:00,
2013-07-21 01:02:00,68.0,65.0,30.00,South,180,0.0,4.0,91,0.00,,,0.44,,2013-07-21 05:02:00,
2013-07-21 01:11:00,68.0,65.0,29.99,South,178,0.0,1.0,91,0.00,,,0.44,,2013-07-21 05:11:00,
2013-07-21 01:22:00,68.0,65.0,29.99,South,178,0.0,1.0,91,0.00,,,0.44,,2013-07-21 05:22:00,
2013-07-21 01:32:00,68.0,66.0,29.99,SSE,167,0.0,1.0,92,0.00,,,0.44,,2013-07-21 05:32:00,
2013-07-21 01:42:00,68.0,66.0,30.00,SSE,167,0.0,1.0,92,0.00,,,0.44,,2013-07-21 05:42:00,
2013-07-21 01:52:00,67.0,65.0,30.00,SSE,166,0.0,2.0,92,0.00,,,0.44,,2013-07-21 05:52:00,
2013-07-21 02:01:00,67.0,65.0,30.00,SSE,166,0.0,0.0,93,0.00,,,0.44,,2013-07-21 06:01:00,
2013-07-21 02:11:00,67.0,65.0,30.00,SSE,166,0.0,1.0,93,0.00,,,0.44,,2013-07-21 06:11:00,
2013-07-21 02:22:00,67.0,65.0,30.00,SSE,166,0.0,1.0,93,0.00,,,0.44,,2013-07-21 06:22:00,
2013-07-21 02:32:00,67.0,65.0,30.00,SSE,166,0.0,1.0,93,0.00,,,0.44,,2013-07-21 06:32:00,
2013-07-21 02:52:00,66.0,64.0,30.00,SSE,166,0.0,1.0,94,0.00,,,0.44,,2013-07-21 06:52:00,
2013-07-21 03:01:00,66.0,64.0,30.00,SSE,166,0.0,1.0,94,0.00,,,0.44,,2013-07-21 07:01:00,
2013-07-21 03:11:00,66.0,64.0,30.00,SSE,166,0.0,1.0,94,0.00,,,0.44,,2013-07-21 07:11:00,
2013-07-21 03:22:00,66.0,64.0,30.00,SSE,166,0.0,1.0,94,0.00,,,0.44,,2013-07-21 07:22:00,
2013-07-21 03:43:00,66.0,64.0,29.99,SSE,166,0.0,1.0,94,0.00,,,0.44,,2013-07-21 07:43:00,
2013-07-21 03:52:00,66.0,64.0,30.00,SSE,166,0.0,1.0,94,0.00,,,0.44,,2013-07-21 07:52:00,
2013-07-21 04:02:00,66.0,64.0,29.99,SSE,166,0.0,2.0,94,0.00,,,0.44,,2013-07-21 08:02:00,
2013-07-21 04:11:00,66.0,64.0,29.99,SSE,166,0.0,2.0,94,0.00,,,0.44,,2013-07-21 08:11:00,
2013-07-21 04:22:00,66.0,64.0,29.99,SSE,166,0.0,2.0,94,0.00,,,0.44,,2013-07-21 08:22:00,
2013-07-21 04:33:00,66.0,64.0,29.99,SSE,166,0.0,2.0,94,0.00,,,0.44,,2013-07-21 08:33:00,
2013-07-21 04:43:00,66.0,64.0,29.99,SSE,164,0.0,2.0,94,0.00,,,0.44,,2013-07-21 08:43:00,
2013-07-21 04:52:00,66.0,64.0,29.99,SSE,164,0.0,2.0,94,0.00,,,0.44,,2013-07-21 08:52:00,
2013-07-21 05:02:00,66.0,64.0,29.99,SSE,164,0.0,1.0,94,0.00,,,0.44,,2013-07-21 09:02:00,
2013-07-21 05:12:00,65.0,63.0,29.98,SSE,164,0.0,1.0,94,0.00,,,0.44,,2013-07-21 09:12:00,
2013-07-21 05:22:00,65.0,63.0,30.00,SSE,164,0.0,0.0,94,0.00,,,0.44,,2013-07-21 09:22:00,
2013-07-21 05:32:00,65.0,63.0,29.99,SSE,164,0.0,1.0,94,0.00,,,0.44,,2013-07-21 09:32:00,
2013-07-21 05:42:00,65.0,63.0,30.00,SSE,164,0.0,1.0,94,0.00,,,0.44,,2013-07-21 09:42:00,
2013-07-21 05:52:00,65.0,63.0,30.00,SSE,164,0.0,0.0,94,0.00,,,0.44,,2013-07-21 09:52:00,
2013-07-21 06:02:00,65.0,63.0,29.99,SSE,162,1.0,4.0,94,0.00,,,0.44,,2013-07-21 10:02:00,
2013-07-21 06:22:00,65.0,63.0,30.00,SSE,155,0.0,2.0,93,0.00,,,0.44,,2013-07-21 10:22:00,
2013-07-21 06:32:00,65.0,63.0,30.00,SSE,154,0.0,1.0,93,0.00,,,0.44,,2013-07-21 10:32:00,
2013-07-21 06:43:00,65.0,63.0,30.00,SSE,154,0.0,1.0,93,0.00,,,0.44,,2013-07-21 10:43:00,
2013-07-21 06:52:00,65.0,63.0,30.01,SSE,155,0.0,1.0,93,0.00,,,0.44,,2013-07-21 10:52:00,
2013-07-21 07:02:00,65.0,63.0,30.01,SSE,154,0.0,0.0,93,0.00,,,0.44,,2013-07-21 11:02:00,
2013-07-21 07:12:00,65.0,63.0,30.01,SSE,155,0.0,1.0,94,0.00,,,0.44,,2013-07-21 11:12:00,
2013-07-21 07:22:00,66.0,64.0,30.01,SSE,154,0.0,0.0,94,0.00,,,0.44,,2013-07-21 11:22:00,
2013-07-21 07:33:00,66.0,64.0,30.01,SSE,155,0.0,4.0,93,0.00,,,0.44,,2013-07-21 11:33:00,
2013-07-21 07:43:00,66.0,64.0,30.00,SSE,153,0.0,2.0,93,0.00,,,0.44,,2013-07-21 11:43:00,
2013-07-21 07:52:00,67.0,65.0,30.01,SSE,151,1.0,2.0,93,0.00,,,0.44,,2013-07-21 11:52:00,
2013-07-21 08:01:00,67.0,65.0,30.01,SE,139,0.0,4.0,93,0.00,,,0.44,,2013-07-21 12:01:00,
2013-07-21 08:22:00,67.0,65.0,30.02,SE,139,0.0,1.0,93,0.00,,,0.44,,2013-07-21 12:22:00,
2013-07-21 08:32:00,67.0,65.0,30.02,SE,139,0.0,0.0,93,0.00,,,0.44,,2013-07-21 12:32:00,
2013-07-21 08:43:00,68.0,66.0,30.02,SE,139,0.0,0.0,93,0.00,,,0.44,,2013-07-21 12:43:00,
2013-07-21 08:53:00,68.0,66.0,30.03,SE,139,0.0,0.0,92,0.00,,,0.44,,2013-07-21 12:53:00,
2013-07-21 09:02:00,68.0,65.0,30.03,SE,139,0.0,4.0,91,0.00,,,0.44,,2013-07-21 13:02:00,
2013-07-21 09:22:00,69.0,66.0,30.03,SE,139,0.0,0.0,90,0.00,,,0.44,,2013-07-21 13:22:00,
2013-07-21 09:33:00,69.0,66.0,30.02,SE,139,0.0,2.0,91,0.00,,,0.44,,2013-07-21 13:33:00,
2013-07-21 09:43:00,69.0,66.0,30.03,SE,139,0.0,1.0,90,0.00,,,0.44,,2013-07-21 13:43:00,
2013-07-21 09:52:00,70.0,67.0,30.03,SE,139,0.0,1.0,90,0.00,,,0.44,,2013-07-21 13:52:00,
2013-07-21 10:01:00,70.0,67.0,30.03,SE,139,0.0,0.0,90,0.00,,,0.44,,2013-07-21 14:01:00,
2013-07-21 10:12:00,70.0,67.0,30.03,SE,139,0.0,0.0,91,0.00,,,0.44,,2013-07-21 14:12:00,
2013-07-21 10:23:00,70.0,67.0,30.03,SE,139,0.0,0.0,91,0.00,,,0.44,,2013-07-21 14:23:00,
2013-07-21 10:32:00,71.0,68.0,30.03,SE,139,0.0,1.0,91,0.00,,,0.44,,2013-07-21 14:32:00,
2013-07-21 10:43:00,71.0,68.0,30.03,SE,139,0.0,2.0,90,0.00,,,0.44,,2013-07-21 14:43:00,
2013-07-21 10:53:00,71.0,68.0,30.03,SE,139,0.0,2.0,89,0.00,,,0.44,,2013-07-21 14:53:00,
2013-07-21 11:02:00,71.0,68.0,30.03,SE,139,0.0,1.0,91,0.00,,,0.44,,2013-07-21 15:02:00,
2013-07-21 11:22:00,73.0,69.0,30.04,SSW,201,0.0,2.0,88,0.00,,,0.44,,2013-07-21 15:22:00,
2013-07-21 11:32:00,73.0,68.0,30.04,SSW,207,0.0,3.0,84,0.01,,,0.45,,2013-07-21 15:32:00,
2013-07-21 11:43:00,73.0,68.0,30.03,SSW,207,0.0,0.0,85,0.01,,,0.45,,2013-07-21 15:43:00,
2013-07-21 11:53:00,73.0,68.0,30.03,SSW,207,0.0,0.0,84,0.01,,,0.45,,2013-07-21 15:53:00,
2013-07-21 12:01:00,73.0,68.0,30.04,SSW,207,0.0,1.0,83,0.01,,,0.45,,2013-07-21 16:01:00,
2013-07-21 12:22:00,73.0,69.0,30.04,SSW,207,0.0,0.0,88,0.01,,,0.45,,2013-07-21 16:22:00,
2013-07-21 12:32:00,73.0,70.0,30.03,SSW,207,0.0,0.0,89,0.00,,,0.45,,2013-07-21 16:32:00,
2013-07-21 12:43:00,73.0,70.0,30.04,SSW,208,0.0,3.0,89,0.00,,,0.45,,2013-07-21 16:43:00,
2013-07-21 12:52:00,73.0,69.0,30.04,SSW,209,0.0,1.0,88,0.00,,,0.45,,2013-07-21 16:52:00,
2013-07-21 13:02:00,73.0,68.0,30.05,SSW,208,0.0,1.0,85,0.00,,,0.45,,2013-07-21 17:02:00,
2013-07-21 13:11:00,73.0,69.0,30.05,SSW,211,0.0,4.0,86,0.00,,,0.45,,2013-07-21 17:11:00,
2013-07-21 13:22:00,73.0,69.0,30.05,SSW,211,0.0,3.0,86,0.00,,,0.45,,2013-07-21 17:22:00,
2013-07-21 13:33:00,73.0,69.0,30.05,WSW,250,1.0,5.0,87,0.00,,,0.45,,2013-07-21 17:33:00,
2013-07-21 13:43:00,73.0,69.0,30.05,WSW,250,1.0,3.0,88,0.00,,,0.45,,2013-07-21 17:43:00,
2013-07-21 13:53:00,74.0,69.0,30.05,WSW,256,0.0,4.0,85,0.00,,,0.45,,2013-07-21 17:53:00,
2013-07-21 14:01:00,74.0,69.0,30.04,West,274,0.0,6.0,84,0.00,,,0.45,,2013-07-21 18:01:00,
2013-07-21 14:22:00,74.0,69.0,30.04,WNW,288,2.0,6.0,84,0.00,,,0.32,,2013-07-21 18:22:00,
2013-07-21 14:32:00,74.0,69.0,30.04,WNW,294,3.0,8.0,85,0.00,,,0.32,,2013-07-21 18:32:00,
2013-07-21 14:43:00,74.0,69.0,30.03,WNW,298,0.0,5.0,84,0.00,,,0.32,,2013-07-21 18:43:00,
2013-07-21 14:52:00,74.0,69.0,30.02,WNW,298,1.0,5.0,84,0.00,,,0.32,,2013-07-21 18:52:00,
2013-07-21 15:01:00,74.0,69.0,30.02,WNW,298,0.0,4.0,84,0.00,,,0.32,,2013-07-21 19:01:00,
2013-07-21 15:22:00,75.0,69.0,30.02,WNW,298,1.0,5.0,82,0.00,,,0.08,,2013-07-21 19:22:00,
2013-07-21 15:32:00,75.0,69.0,30.02,NW,323,5.0,7.0,83,0.00,,,0.08,,2013-07-21 19:32:00,
2013-07-21 15:42:00,75.0,69.0,30.01,NW,320,5.0,7.0,82,0.00,,,0.08,,2013-07-21 19:42:00,
2013-07-21 15:52:00,75.0,69.0,30.01,WNW,298,4.0,8.0,83,0.00,,,0.08,,2013-07-21 19:52:00,
2013-07-21 16:02:00,75.0,69.0,30.01,NW,323,5.0,8.0,83,0.00,,,0.08,,2013-07-21 20:02:00,
2013-07-21 16:12:00,76.0,70.0,30.00,West,277,0.0,6.0,81,0.00,,,0.08,,2013-07-21 20:12:00,
2013-07-21 16:22:00,76.0,69.0,30.00,WNW,302,2.0,7.0,79,0.00,,,0.08,,2013-07-21 20:22:00,
2013-07-21 16:32:00,77.0,71.0,30.00,WNW,296,1.0,5.0,82,0.00,,,0.08,,2013-07-21 20:32:00,
2013-07-21 16:43:00,77.0,69.0,30.00,WNW,302,2.0,11.0,77,0.00,,,0.08,,2013-07-21 20:43:00,
2013-07-21 16:52:00,77.0,69.0,29.99,WNW,302,1.0,7.0,76,0.00,,,0.08,,2013-07-21 20:52:00,
2013-07-21 17:01:00,77.0,69.0,29.98,NW,318,0.0,7.0,77,0.00,,,0.08,,2013-07-21 21:01:00,
2013-07-21 17:11:00,77.0,69.0,29.99,NW,318,4.0,6.0,77,0.00,,,0.07,,2013-07-21 21:11:00,
2013-07-21 17:22:00,77.0,70.0,29.99,NW,315,0.0,6.0,80,0.00,,,0.07,,2013-07-21 21:22:00,
2013-07-21 17:32:00,77.0,70.0,29.98,NW,315,0.0,5.0,79,0.00,,,0.07,,2013-07-21 21:32:00,
2013-07-21 17:43:00,78.0,69.0,29.98,NW,313,1.0,6.0,74,0.00,,,0.07,,2013-07-21 21:43:00,
2013-07-21 17:52:00,78.0,69.0,29.98,NW,313,2.0,4.0,74,0.00,,,0.07,,2013-07-21 21:52:00,
2013-07-21 18:01:00,79.0,70.0,29.98,NW,313,3.0,6.0,75,0.00,,,0.07,,2013-07-21 22:01:00,
2013-07-21 18:22:00,78.0,69.0,29.98,NW,306,0.0,4.0,75,0.00,,,0.01,,2013-07-21 22:22:00,
2013-07-21 18:32:00,79.0,70.0,29.98,NW,306,0.0,4.0,74,0.00,,,0.01,,2013-07-21 22:32:00,
2013-07-21 18:43:00,78.0,69.0,29.98,NW,306,0.0,5.0,75,0.00,,,0.01,,2013-07-21 22:43:00,
2013-07-21 18:52:00,78.0,70.0,29.98,NW,306,1.0,2.0,76,0.00,,,0.01,,2013-07-21 22:52:00,
2013-07-21 19:02:00,79.0,71.0,29.98,NW,306,0.0,1.0,76,0.00,,,0.01,,2013-07-21 23:02:00,
2013-07-21 19:11:00,79.0,70.0,29.98,NW,306,0.0,5.0,75,0.00,,,0.01,,2013-07-21 23:11:00,
2013-07-21 19:22:00,79.0,70.0,29.97,NW,306,0.0,4.0,75,0.00,,,0.01,,2013-07-21 23:22:00,
2013-07-21 19:32:00,78.0,69.0,29.97,NW,306,0.0,4.0,75,0.00,,,0.01,,2013-07-21 23:32:00,
2013-07-21 19:42:00,77.0,70.0,29.97,NW,306,0.0,1.0,78,0.00,,,0.01,,2013-07-21 23:42:00,
2013-07-21 19:53:00,76.0,69.0,29.97,NW,306,0.0,0.0,79,0.00,,,0.01,,2013-07-21 23:53:00,
2013-07-21 20:01:00,77.0,70.0,29.98,NW,306,0.0,1.0,79,0.00,,,0.01,,2013-07-22 00:01:00,
2013-07-21 20:11:00,77.0,70.0,29.98,NW,306,0.0,0.0,79,0.00,,,0.01,,2013-07-22 00:11:00,
2013-07-21 20:22:00,77.0,70.0,29.97,NW,306,0.0,0.0,80,0.00,,,0.01,,2013-07-22 00:22:00,
2013-07-21 20:32:00,76.0,70.0,29.98,NW,306,0.0,0.0,81,0.00,,,0.01,,2013-07-22 00:32:00,
2013-07-21 20:52:00,75.0,69.0,29.98,NW,306,0.0,1.0,83,0.00,,,0.01,,2013-07-22 00:52:00,
2013-07-21 21:02:00,74.0,69.0,29.98,NW,306,0.0,0.0,85,0.00,,,0.01,,2013-07-22 01:02:00,
2013-07-21 21:12:00,73.0,69.0,29.98,NW,306,0.0,0.0,86,0.00,,,0.01,,2013-07-22 01:12:00,
2013-07-21 21:22:00,72.0,68.0,29.98,NW,306,0.0,0.0,87,0.00,,,0.01,,2013-07-22 01:22:00,
2013-07-21 21:32:00,72.0,68.0,29.98,NW,306,0.0,0.0,88,0.00,,,0.01,,2013-07-22 01:32:00,
2013-07-21 21:42:00,72.0,68.0,29.99,NW,306,0.0,0.0,88,0.00,,,0.01,,2013-07-22 01:42:00,
2013-07-21 21:52:00,72.0,68.0,29.99,NW,306,0.0,0.0,88,0.00,,,0.01,,2013-07-22 01:52:00,
2013-07-21 22:02:00,71.0,68.0,29.99,NW,306,0.0,0.0,89,0.00,,,0.01,,2013-07-22 02:02:00,
2013-07-21 22:22:00,71.0,68.0,30.00,NW,306,0.0,0.0,89,0.00,,,0.01,,2013-07-22 02:22:00,
2013-07-21 22:32:00,71.0,68.0,30.00,NW,306,0.0,0.0,89,0.00,,,0.01,,2013-07-22 02:32:00,
2013-07-21 22:43:00,71.0,68.0,30.00,NW,306,0.0,0.0,89,0.00,,,0.01,,2013-07-22 02:43:00,
2013-07-21 22:52:00,71.0,68.0,30.00,NW,306,0.0,0.0,89,0.00,,,0.01,,2013-07-22 02:52:00,
2013-07-21 23:01:00,71.0,68.0,30.00,NW,306,0.0,0.0,89,0.00,,,0.01,,2013-07-22 03:01:00,
2013-07-21 23:12:00,71.0,68.0,30.01,NW,306,0.0,0.0,89,0.00,,,0.01,,2013-07-22 03:12:00,
2013-07-21 23:22:00,71.0,68.0,30.01,NW,306,0.0,0.0,89,0.00,,,0.01,,2013-07-22 03:22:00,
2013-07-21 23:33:00,71.0,68.0,30.01,NW,306,0.0,0.0,89,0.00,,,0.01,,2013-07-22 03:33:00,
2013-07-21 23:43:00,71.0,68.0,30.01,NW,306,0.0,0.0,89,0.00,,,0.01,,2013-07-22 03:43:00,
2013-07-21 23:53:00,70.0,67.0,30.01,NW,306,0.0,0.0,89,0.00,,,0.01,,2013-07-22 03:53:00,